DW7658 Weather Reports


time (UTC)temp
C
wind
direction
speed
KPH
gust
KPH
rain 1hr
cm
rain 24hr
cm
rain mn
cm
humidity
%
barometer
mb
20260903060017 22 70 0.0 0.0 0.00 0.00 0.00 87 1010.2
20260903054604 22 71 0.0 0.0 0.00 0.00 0.00 87 1010.1
20260903053059 22 71 0.0 0.0 0.00 0.00 0.00 87 1010.1
20260903051540 22 71 0.0 0.0 0.00 0.00 0.00 87 1010.0
20260903050040 22 71 0.0 0.0 0.00 0.00 0.00 87 1009.9
20260903044521 22 70 0.0 0.0 0.00 0.00 0.00 87 1009.8
20260903043019 22 71 0.0 0.0 0.00 0.00 0.00 87 1009.8
20260903041502 22 71 0.0 0.0 0.00 0.00 0.00 87 1009.7
20260903040059 22 71 0.0 0.0 0.00 0.00 0.00 87 1009.8
20260903034543 23 71 0.0 0.0 0.00 0.00 0.00 87 1009.9
20260903033040 23 69 0.0 0.0 0.00 0.00 0.00 87 1010.0
20260903031525 23 61 0.0 0.0 0.00 0.00 0.00 86 1010.1
20260903030020 23 56 0.0 0.0 0.00 0.00 0.00 86 1010.2
20260903024501 23 57 0.0 0.0 0.00 0.00 0.00 86 1010.2
20260903023059 23 56 0.0 0.0 0.00 0.00 0.00 85 1010.2
20260903021540 24 56 0.0 0.0 0.00 0.00 0.00 85 1010.3
20260903020048 24 56 0.0 0.0 0.00 0.00 0.00 85 1010.3
20260903014521 25 57 0.0 0.0 0.00 0.00 0.00 84 1010.2
20260903013016 25 56 0.0 0.0 0.00 0.00 0.00 83 1010.0
20260903011617 25 56 0.0 0.0 0.00 0.00 0.00 83 1010.0
20260903010106 26 56 0.0 0.0 0.00 0.00 0.00 82 1009.7
20260903004534 26 56 0.0 0.0 0.00 0.00 0.00 81 1009.6
20260903003032 26 57 0.0 0.0 0.00 0.00 0.00 79 1009.5
20260903001517 27 57 0.0 0.0 0.00 0.00 0.00 77 1009.4
20260903000014 28 56 0.0 0.0 0.00 0.00 0.00 74 1009.4
20260902234600 28 57 0.0 0.0 0.00 0.00 0.00 73 1009.4
20260902233056 30 56 0.0 0.0 0.00 0.00 0.00 70 1009.4
20260902231545 30 57 0.0 0.0 0.00 0.00 0.00 66 1009.6
20260902230050 31 57 0.0 1.6 0.00 0.00 0.00 65 1009.6
20260902224520 31 6 0.0 0.0 0.00 0.00 0.00 64 1009.6
20260902223033 31 6 0.0 3.2 0.00 0.00 0.00 61 1009.5
20260902221502 32 70 0.0 1.6 0.00 0.00 0.00 60 1009.5
20260902220002 32 57 0.0 3.2 0.00 0.00 0.00 59 1009.6
20260902214548 33 273 0.0 1.6 0.00 0.00 0.00 58 1009.6
20260902213042 33 57 0.0 1.6 0.00 0.00 0.00 56 1009.7
20260902211529 35 360 0.0 1.6 0.00 0.00 0.00 54 1009.7
20260902210024 35 267 0.0 1.6 0.00 0.00 0.00 53 1009.8
20260902204508 35 4 0.0 1.6 0.00 0.00 0.00 54 1009.7
20260902203006 36 236 0.0 3.2 0.00 0.00 0.00 51 1009.9
20260902201553 36 41 0.0 9.7 0.00 0.00 0.00 52 1010.0
20260902200046 36 127 0.0 3.2 0.00 0.00 0.00 51 1010.1
20260902194537 35 115 0.0 3.2 0.00 0.00 0.00 54 1010.3
20260902193024 36 253 1.6 6.4 0.00 0.00 0.00 49 1010.4
20260902191507 36 233 0.0 3.2 0.00 0.00 0.00 52 1010.6
20260902190007 36 272 0.0 4.8 0.00 0.00 0.00 52 1010.8
20260902184549 35 218 0.0 3.2 0.00 0.00 0.00 56 1010.9
20260902183048 36 298 0.0 1.6 0.00 0.00 0.00 52 1011.1
20260902181531 37 118 0.0 4.8 0.00 0.00 0.00 49 1011.1
20260902180029 36 124 0.0 8.0 0.00 0.00 0.00 52 1011.1
20260902174512 37 276 0.0 12.9 0.00 0.00 0.00 50 1011.3
20260902173010 36 155 0.0 6.4 0.00 0.00 0.00 54 1011.5
20260902171552 36 125 1.6 6.4 0.00 0.00 0.00 52 1011.7
20260902170050 36 25 0.0 4.8 0.00 0.00 0.00 56 1011.9
20260902164532 36 94 1.6 4.8 0.00 0.00 0.00 54 1011.9
20260902163028 36 231 0.0 3.2 0.00 0.00 0.00 57 1012.1
20260902161510 35 174 1.6 4.8 0.00 0.00 0.00 56 1012.4
20260902160010 34 63 0.0 6.4 0.00 0.00 0.00 60 1012.4
20260902154554 35 233 0.0 3.2 0.00 0.00 0.00 57 1012.5
20260902153050 35 232 0.0 3.2 0.00 0.00 0.00 57 1012.5
20260902151531 35 239 0.0 3.2 0.00 0.00 0.00 59 1012.5
20260902150028 34 237 0.0 1.6 0.00 0.00 0.00 60 1012.6
20260902144506 34 252 0.0 3.2 0.00 0.00 0.00 62 1012.6
20260902143002 33 236 0.0 0.0 0.00 0.00 0.00 63 1012.7
20260902141542 32 236 0.0 0.0 0.00 0.00 0.00 67 1012.6
20260902140037 32 238 0.0 0.0 0.00 0.00 0.00 68 1012.5
20260902134525 31 233 0.0 1.6 0.00 0.00 0.00 71 1012.4
20260902133011 30 236 0.0 0.0 0.00 0.00 0.00 74 1012.5
20260902131556 28 236 0.0 0.0 0.00 0.00 0.00 77 1012.6
20260902130046 27 236 0.0 0.0 0.00 0.00 0.00 82 1012.5
20260902124526 26 236 0.0 0.0 0.00 0.00 0.00 85 1012.5
20260902123026 24 236 0.0 0.0 0.00 0.00 0.00 85 1012.3
20260902121508 22 238 0.0 0.0 0.00 0.00 0.00 87 1012.4
20260902120004 21 238 0.0 0.0 0.00 0.00 0.00 87 1012.3
20260902114546 -17 0.0 0.0 0.00 0.00 0.00 1012.1
20260902113046 -17 0.0 0.0 0.00 0.00 0.00 1012.0
20260902111519 -17 0.0 0.0 0.00 0.00 0.00 1011.8
20260902110027 -17 0.0 0.0 0.00 0.00 0.00 1011.8
20260902104615 -17 0.0 0.0 0.00 0.00 0.00 1011.8
20260902103047 -17 0.0 0.0 0.00 0.00 0.00 1011.7
20260902101529 -17 0.0 0.0 0.00 0.00 0.00 1011.7
20260902100021 -17 0.0 0.0 0.00 0.00 0.00 1011.7
20260902094619 -17 0.0 0.0 0.00 0.00 0.00 1011.6
20260902093112 -17 0.0 0.0 0.00 0.00 0.00 1011.6
20260902091551 -17 0.0 0.0 0.00 0.00 0.00 1011.6
20260902090035 -17 0.0 0.0 0.00 0.00 0.00 1011.4
20260902084531 -17 0.0 0.0 0.00 0.00 0.00 1011.3
20260902083026 -17 0.0 0.0 0.00 0.00 0.00 1011.1
20260902081521 -17 0.0 0.0 0.00 0.00 0.00 1011.1
20260902080022 -17 0.0 0.0 0.00 0.00 0.00 1011.1
20260902074514 -17 0.0 0.0 0.00 0.00 0.00 1011.0
20260902073012 21 236 0.0 0.0 0.00 0.00 0.00 87 1010.9
20260902071511 21 236 0.0 0.0 0.00 0.00 0.00 87 1010.9
20260902070053 21 236 0.0 0.0 0.00 0.00 0.00 87 1010.8
20260902064552 21 245 0.0 0.0 0.00 0.00 0.00 87 1010.8
20260902063042 21 243 0.0 0.0 0.00 0.00 0.00 87 1010.7
20260902061534 21 243 0.0 0.0 0.00 0.00 0.00 87 1010.8